Location: Erp
(42.9417°N, 1.2009°E)
Time: 09:26:32
(UTC+00:00)

Cosmos 1603 - Pass Details

Date: 12 January 2026
Orbit: 831 x 857 km, 71.0° (Epoch: 18 February)

Event Time Altitude Azimuth Distance (km) Brightness Sun altitude
Rises 18:44:56 0° 211° (SSW) 3,391 7.4 -21.9°
Reaches altitude 10° 18:47:24 10° 215° (SW) 2,456 6.7 -22.3°
Maximum altitude 18:52:59 65° 297° (WNW) 919 4.0 -23.3°
Enters shadow 18:56:25 24° 13° (NNE) 1,674 5.0 -23.9°
